Regional Weather Roundup
Issued by NWS Little Rock, AR

Home | Current Version | Previous Version | Text Only | Print | Product List | Glossary Off
Versions: 1 2 3 4 5 6 7 8 9 10 11 12 13 14 15 16 17 18 19 20 21 22 23 24 25 26 27 28 29 30 31 32 33 34 35 36 37 38 39 40 41 42 43 44 45 46 47 48 49 50

000
ASUS44 KLZK 031805
RWRLZK

WEATHER ROUNDUP FOR ARKANSAS
NATIONAL WEATHER SERVICE LITTLE ROCK AR
100 PM CDT MON AUG 03 2015

NOTE: "FAIR" INDICATES FEW OR NO CLOUDS BELOW 12,000 FEET WITH NO
SIGNIFICANT WEATHER AND/OR OBSTRUCTIONS TO VISIBILITY.

ARZ001-003-010-029-031900-
NORTHWEST ARKANSAS

CITY           SKY/WX    TMP DP  RH WIND       PRES   REMARKS
FAYETTEVILLE   PTSUNNY   88  65  46 VRB3      29.99F HX  90
6HR MIN TEMP:  65; 6HR MAX TEMP:  89;

FORT SMITH     CLOUDY    92  62  36 CALM      29.95F HX  92
6HR MIN TEMP:  73; 6HR MAX TEMP:  93;

HARRISON       MOSUNNY   91  63  39 VRB3      30.00F HX  92
6HR MIN TEMP:  66; 6HR MAX TEMP:  92;

BENTONVILLE    MOSUNNY   90  64  43 SW7       30.00F HX  91
6HR MIN TEMP:  70; 6HR MAX TEMP:  90;

ROGERS         MOSUNNY   90  66  45 SW9       30.00F HAZE    HX  92
6HR MIN TEMP:  71; 6HR MAX TEMP:  91;

SILOAM SPGS    PTSUNNY   90  64  43 S7        29.99F HX  91
6HR MIN TEMP:  70; 6HR MAX TEMP:  90;

HIGHFILL       MOSUNNY   90  64  42 W10       29.99F HX  91
6HR MIN TEMP:  69; 6HR MAX TEMP:  91;

SPRINGDALE     MOSUNNY   90  63  40 SW7G14    30.02F HX  90
$$

ARZ004-005-016-031900-
NORTH CENTRAL ARKANSAS

CITY           SKY/WX    TMP DP  RH WIND       PRES   REMARKS
BATESVILLE     SUNNY     93  66  40 NW5       29.95S HX  96
6HR MIN TEMP:  73; 6HR MAX TEMP:  93;

FLIPPIN        MOSUNNY   91  64  40 E5        29.95F HX  93
6HR MIN TEMP:  70; 6HR MAX TEMP:  91;

MTN HOME       MOSUNNY   89  67  47 CALM      29.96F HX  92
6HR MIN TEMP:  70; 6HR MAX TEMP:  90;

$$

ARZ040-041-031900-
WEST CENTRAL ARKANSAS

CITY           SKY/WX    TMP DP  RH WIND       PRES   REMARKS
MENA           PTSUNNY   95  61  31 E6        29.99S HX  95
MOUNT IDA      PTSUNNY   93  62  35 NW5       29.96S HX  93
6HR MIN TEMP:  65; 6HR MAX TEMP:  95;

$$

ARZ009-017-025-026-028-031900-
NORTHEAST ARKANSAS

CITY           SKY/WX    TMP DP  RH WIND       PRES   REMARKS
JONESBORO      SUNNY     94  67  41 VRB3      29.93F HX  97
6HR MIN TEMP:  71; 6HR MAX TEMP:  94;

NEWPORT        SUNNY     95  69  42 NW3       29.95F HX 100
6HR MIN TEMP:  75; 6HR MAX TEMP:  96;

WALNUT RIDGE   SUNNY     93  66  40 CALM      29.92F HX  96
6HR MIN TEMP:  73; 6HR MAX TEMP:  93;

BLYTHEVILLE    SUNNY     92  75  57 W3        29.94F HX 103
6HR MIN TEMP:  73; 6HR MAX TEMP:  93;

$$

ARZ022-023-033-042-044-031900-
CENTRAL ARKANSAS

CITY           SKY/WX    TMP DP  RH WIND       PRES   REMARKS
LITTLE ROCK    MOSUNNY   96  64  34 S8        29.94F HX  98
6HR MIN TEMP:  73; 6HR MAX TEMP:  97;

N LITTLE ROCK  MOSUNNY   96  64  33 E2        29.94F HX  98
6HR MIN TEMP:  78; 6HR MAX TEMP:  96;

JACKSONVILLE   MOSUNNY   97  61  29 VRB5      29.94F HX  97
6HR MIN TEMP:  71; 6HR MAX TEMP:  98;

SEARCY         MOSUNNY   95  65  37 W5        29.95F HX  97
6HR MIN TEMP:  70; 6HR MAX TEMP:  97;

HOT SPRINGS    MOSUNNY   94  60  32 S7        29.96F HX  94
6HR MIN TEMP:  70; 6HR MAX TEMP:  96;

RUSSELLVILLE   MOSUNNY   94  63  35 SW7       29.94F HX  95
6HR MIN TEMP:  68; 6HR MAX TEMP:  94;

$$

ARZ036-031900-
EAST ARKANSAS

CITY           SKY/WX    TMP DP  RH WIND       PRES   REMARKS
WEST MEMPHIS   SUNNY     92  70  48 W6        29.94F HX  97
6HR MIN TEMP:  71; 6HR MAX TEMP:  93;

$$

ARZ050-053-066-070-073-031900-
SOUTHWEST ARKANSAS

CITY           SKY/WX    TMP DP  RH WIND       PRES   REMARKS
ARKADELPHIA    FAIR      98  64  32 CALM      29.96S HX 100
6HR MIN TEMP:  68; 6HR MAX TEMP:  97;

CAMDEN         SUNNY     95  63  34 NW5       29.94S HX  96
TEXARKANA      MOSUNNY   93  61  34 VRB3      29.95F HX  93
6HR MIN TEMP:  70; 6HR MAX TEMP:  96;

EL DORADO      SUNNY     96  62  32 N8        29.95S HX  97
6HR MIN TEMP:  68; 6HR MAX TEMP:  96;

DE QUEEN       SUNNY     94  65  38 S8        29.93S HX  96
6HR MIN TEMP:  67; 6HR MAX TEMP:  95;

$$

ARZ056-057-069-031900-
SOUTHEAST ARKANSAS

CITY           SKY/WX    TMP DP  RH WIND       PRES   REMARKS
PINE BLUFF     SUNNY     95  68  41 E6        29.95F HX  99
6HR MIN TEMP:  71; 6HR MAX TEMP:  95;

STUTTGART      MOSUNNY   93  70  46 MISG      29.96R HX  99
6HR MIN TEMP:  73; 6HR MAX TEMP:  93;

MONTICELLO     MOSUNNY   95  65  37 E7        29.95S HX  97
6HR MIN TEMP:  68; 6HR MAX TEMP:  96;


$$




USA.gov is the U.S. government's official web portal to all federal, state and local government web resources and services.